Starlink 2188

operational
NORAD ID: 48563 Int'l Des: 2021-041 Owner: SPXS Country: US Constellation: starlink
LEOCIRCULARSTARLINK_TYPE

Starlink 2188について

説明を読み込み中...

リアルタイム位置

3D地球を読み込み中...

次回通過

高度履歴

Altitude vs Time

uPlot chart will show altitude changes over time

軌道要素

1 48563U 21041L 25352.55853318 .00000079 00000-0 24185-4 0 9999
2 48563 53.0559 135.8275 0001165 93.5502 266.5620 15.06393387252970
Epoch: Dec 18, 2025 • Age: 7 hours

現在のステータス

高度 547.8 km
速度 7.59 km/s
衛星直下点 2.02°N, 83.1°W
打ち上げ日 May 15, 2021
運用期間 4.5 years
タイプ internet

技術仕様

分類 Payload
質量 260.00 kg
乾燥質量 248.00 kg
総質量 260.00 kg
長さ 0.20 m
直径 2.80 m
スパン 9.00 m
形状 Box + pan
製造者 SPXS
バスタイプ Starlink
フェーズステータス In Orbit
所有者/国 SPXS/US

大規模コンステレーション

Loading constellations...